Wind_Speed
7 7 8 8 8 8 8 8 8 8 8 8 9 9 9 9 9 9 9 8 9 9 9 9 9 9 9 9 9 9 8 8 8 7 7 7 7 6 6 7 6 6 5 5 4 4 4 4 4 4 4 4 4 4 3 4 4 4 5 5 5 6 6 7 7 8 9 8 8 8 8 8 8 9 9 9 7 6 7 6 5 3 3 3 3
7 8 8 8 8 7 7 7 7 7 8 8 8 9 9 9 9 9 9 8 9 8 8 9 9 9 8 8 8 9 8 8 7 7 7 7 6 6 7 7 7 7 6 5 5 4 4 4 4 4 3 3 3 3 3 3 4 4 5 5 5 5 6 7 7 8 8 8 9 8 8 8 8 8 8 8 6 6 6 6 5 4 3 3 3
7 8 8 7 7 7 6 7 7 7 7 7 8 8 9 9 8 8 8 8 8 8 7 8 9 9 8 8 8 8 8 7 7 7 7 6 6 5 5 6 6 5 5 4 4 4 4 3 3 3 2 2 2 2 3 3 3 4 4 5 5 6 6 7 7 8 8 8 9 8 7 7 7 7 7 7 6 6 6 5 5 4 4 4 4
8 7 7 7 6 6 6 6 7 7 7 7 7 7 8 7 7 7 7 7 7 7 6 7 8 8 8 8 8 7 7 7 7 7 6 6 5 5 4 3 4 4 3 3 2 3 3 2 2 1 1 1 1 2 2 3 4 4 4 5 6 6 6 7 7 7 8 8 8 7 7 7 7 7 7 6 6 6 6 5 5 4 4 4 5
7 7 7 7 6 6 6 6 6 6 6 6 6 6 6 6 6 6 7 7 7 6 6 7 7 7 7 8 8 7 7 7 7 6 6 6 5 5 4 3 2 3 3 3 2 1 1 0 0 0 1 1 2 2 3 4 4 5 5 6 6 6 6 7 7 7 8 8 7 7 7 7 7 7 7 6 6 6 6 6 5 5 5 5 5
7 6 5 6 6 6 6 6 5 5 5 5 5 5 5 5 6 6 6 6 7 6 6 6 6 6 7 7 7 7 6 7 7 6 6 6 5 4 4 4 3 2 2 2 2 1 1 1 2 2 2 2 2 3 4 4 5 5 6 6 7 7 7 7 7 8 8 7 7 7 7 7 7 7 7 7 6 6 6 6 5 5 6 5 6
6 5 4 5 6 6 6 5 5 4 4 4 4 4 4 5 5 5 6 6 7 6 6 6 6 6 6 7 7 7 7 7 6 6 6 6 5 5 4 3 3 2 1 2 2 2 3 2 2 3 3 3 3 4 4 5 6 6 6 6 6 6 7 7 7 8 7 7 7 7 7 7 7 7 7 7 7 7 7 7 7 7 7 7 7
6 5 4 4 5 6 5 5 4 4 4 3 3 3 4 4 5 5 6 6 6 7 7 6 6 6 6 6 7 6 6 6 5 6 6 5 5 5 5 4 3 3 2 2 1 2 5 4 3 3 3 3 4 4 4 5 5 6 5 5 6 6 6 6 6 7 7 6 6 7 7 7 8 8 8 8 9 9 9 9 9 8 8 8 8
6 5 4 4 5 5 5 4 3 3 3 3 3 3 3 3 4 4 5 5 6 7 6 6 5 5 5 6 6 6 5 5 5 5 5 4 4 4 4 4 4 3 2 2 2 2 4 5 4 3 3 3 3 3 3 4 4 5 5 5 5 5 5 5 5 6 6 6 6 7 8 8 9 9 9 10 10 10 10 10 10 10 10 10 10
7 5 4 5 5 5 4 4 3 2 2 2 2 3 3 3 3 4 4 4 5 5 6 5 4 4 5 5 5 5 4 4 4 4 3 4 4 4 4 4 3 3 3 2 3 2 3 5 5 4 4 4 3 3 3 3 3 4 4 5 5 5 4 4 5 5 5 6 7 8 8 9 10 10 10 11 11 11 11 12 12 12 12 11 11
7 6 5 5 5 4 4 3 3 2 2 2 3 3 3 3 3 3 3 3 3 4 4 3 3 4 4 4 5 4 3 3 3 3 3 4 4 3 3 4 3 3 2 2 2 3 2 2 3 2 3 5 5 4 4 4 4 4 4 4 4 5 5 5 5 5 5 6 7 8 8 9 10 10 11 11 11 12 12 12 13 13 13 12 12
7 6 5 5 5 4 4 3 3 2 2 2 3 3 3 3 3 3 2 2 2 3 3 2 2 4 3 2 4 3 3 3 2 3 3 4 4 3 3 4 5 3 3 2 2 2 2 1 1 1 1 4 5 6 5 4 4 4 4 4 4 4 4 5 5 5 6 7 7 8 9 10 10 11 11 11 12 12 13 13 13 14 14 14 13
6 6 5 5 5 4 4 3 3 2 2 3 3 3 3 3 2 2 1 1 1 1 2 2 1 2 2 2 4 4 3 3 2 3 4 4 4 4 4 4 5 5 4 3 2 1 1 0 0 0 1 2 4 5 6 5 5 5 4 4 4 5 5 5 6 6 7 8 9 9 10 10 11 11 11 12 12 13 13 14 14 15 15 15 15
6 6 5 5 5 4 4 3 3 2 2 3 4 3 3 2 2 1 0 1 1 1 2 2 1 2 2 2 5 5 4 3 3 4 4 4 4 4 4 4 5 5 4 3 2 1 1 1 0 1 1 2 2 3 4 4 5 5 5 4 4 5 5 6 6 7 8 8 9 10 10 11 11 12 12 13 13 14 14 15 15 16 16 16 17
6 6 5 5 5 4 4 3 3 2 2 3 4 3 3 2 1 1 1 1 1 1 2 2 2 3 3 2 4 5 4 3 4 4 5 4 3 4 4 4 6 5 3 3 2 2 1 1 1 1 1 2 2 2 2 3 4 5 5 4 5 5 5 6 7 7 8 9 10 10 11 12 12 13 14 14 15 15 15 16 16 17 17 18 18
6 6 5 5 5 4 4 3 3 2 2 3 3 3 3 2 1 1 1 2 2 2 2 2 3 3 1 2 3 4 3 4 5 4 4 4 3 5 5 3 5 4 2 3 3 2 1 1 0 1 2 2 2 2 2 2 3 4 4 4 5 6 6 7 8 8 9 10 11 11 12 13 14 14 15 15 15 16 16 16 16 17 17 17 17
6 6 5 5 5 4 4 4 3 2 2 2 2 2 3 2 2 2 1 1 2 3 2 2 3 4 2 1 2 3 2 2 4 2 2 4 5 6 5 3 5 4 2 3 2 1 1 1 1 1 2 2 2 2 2 2 3 4 4 5 6 6 7 8 8 9 10 11 12 12 13 14 14 14 15 15 15 15 15 15 15 15 16 16 16
7 7 6 6 5 5 4 4 3 3 3 2 2 2 3 3 3 3 2 1 1 2 2 2 2 2 1 2 2 2 2 1 2 1 1 3 3 6 6 4 6 5 3 3 2 2 1 1 1 1 1 1 1 2 2 2 2 3 3 5 6 7 8 9 9 10 11 11 12 12 12 13 13 14 14 14 15 15 15 15 15 14 14 15 15
7 7 7 6 5 5 4 4 4 4 3 3 2 2 3 3 3 3 3 3 2 2 2 2 2 1 1 2 2 2 2 1 1 2 2 2 1 3 6 5 6 5 4 3 3 3 2 1 1 1 1 0 1 1 1 2 2 3 3 5 6 7 8 9 11 11 12 12 12 12 12 13 13 14 15 15 15 14 14 14 14 14 14 14 15
7 7 7 7 6 5 5 5 4 4 4 3 3 2 2 3 3 3 3 3 3 2 2 2 2 2 1 1 2 1 1 1 2 1 1 1 1 2 5 5 5 6 4 4 4 4 3 2 1 1 2 1 0 0 1 1 3 4 5 6 7 8 10 10 11 12 12 12 12 12 13 13 14 15 15 15 14 14 14 14 14 15 15 15 15
7 7 7 7 7 6 5 5 5 5 4 3 3 3 3 3 3 4 4 4 3 3 2 2 3 2 2 1 1 1 1 1 1 1 1 1 1 2 3 3 5 5 3 4 4 4 4 3 2 2 2 2 1 1 1 2 3 4 6 7 8 9 10 11 12 12 12 12 12 13 13 14 14 14 14 14 14 14 15 15 16 16 16 16 16
8 7 7 7 7 7 6 6 5 5 5 4 4 4 4 4 4 4 4 4 3 3 3 3 2 2 3 3 2 2 2 1 1 1 2 1 1 1 3 3 3 4 3 4 4 3 4 3 2 3 3 3 2 1 1 2 3 4 5 7 8 9 10 11 11 11 12 12 12 12 12 12 13 13 13 14 14 15 15 16 16 16 16 16 16
8 8 8 8 8 8 7 6 6 6 6 5 5 5 4 4 4 4 4 4 4 3 3 3 3 3 3 4 4 3 3 2 1 0 0 0 2 3 1 2 1 3 3 2 1 2 3 2 3 4 4 4 4 4 4 5 6 7 8 9 9 9 10 10 11 11 11 11 11 12 12 12 13 13 13 14 15 16 17 17 16 15 15 15 14
8 8 8 9 8 8 7 7 7 7 7 6 5 5 4 4 5 5 5 4 4 3 3 3 3 4 4 5 5 4 3 3 2 2 1 1 1 3 1 2 1 1 3 1 1 2 3 3 4 4 4 5 6 6 6 5 7 10 10 9 9 9 10 10 11 11 12 12 12 12 12 12 12 12 13 15 16 17 17 16 15 14 14 13 13
9 9 9 9 9 9 9 8 7 8 7 6 6 5 5 5 5 5 5 5 4 4 4 4 4 4 4 4 5 4 4 3 3 2 2 1 2 3 2 1 3 1 2 0 1 3 3 3 4 4 5 4 5 6 5 3 6 11 11 7 8 10 11 11 12 12 12 12 11 11 11 11 13 14 15 16 16 16 15 15 15 14 13 13 12
10 10 9 9 9 9 10 9 8 8 8 7 6 6 6 5 5 5 5 4 4 4 4 4 4 4 4 4 4 4 3 4 4 3 3 3 2 1 2 3 3 1 3 2 1 2 3 3 3 4 5 4 5 5 5 4 6 11 10 6 6 10 12 12 12 12 11 11 10 10 11 13 15 16 16 15 15 15 15 15 15 14 13 13 12
10 10 9 10 10 10 10 10 9 9 8 8 7 7 8 7 6 6 5 5 5 5 5 4 4 5 4 4 4 3 3 4 4 4 3 3 1 1 1 2 2 1 2 3 3 2 1 2 3 4 4 4 4 4 5 4 6 11 10 6 5 10 12 12 12 12 10 9 9 11 13 15 16 16 15 14 14 15 15 15 14 13 13 13 13
10 10 10 10 10 10 10 11 10 10 9 9 8 7 8 8 7 7 6 6 5 5 5 5 5 5 5 4 4 4 3 3 3 3 3 3 2 2 2 1 1 2 1 1 3 3 1 2 3 3 4 4 3 3 5 4 7 10 8 6 5 7 12 13 11 10 9 9 11 12 14 15 16 15 14 14 15 16 15 14 13 12 12 13 14
11 11 11 11 10 10 10 11 11 11 10 10 9 8 8 8 8 8 8 6 5 5 5 5 5 5 5 5 4 4 4 4 4 3 2 3 3 3 3 2 1 2 2 1 1 1 1 1 1 3 3 4 3 3 3 3 7 9 7 6 5 6 11 12 10 9 8 10 13 13 14 16 16 14 13 14 16 17 15 13 13 12 13 14 15
13 12 11 11 11 11 10 10 11 11 11 10 10 10 9 9 8 9 9 7 6 6 6 5 5 5 5 4 4 4 4 4 4 3 3 3 4 4 4 3 2 3 3 2 2 2 1 2 2 2 2 4 3 4 4 4 8 9 7 6 6 7 11 10 9 9 9 11 13 13 14 16 15 14 13 14 17 17 15 14 14 14 14 16 18
13 13 12 12 12 12 11 11 11 11 11 11 11 11 10 10 9 9 9 9 8 7 7 7 6 5 5 5 4 4 4 5 5 4 4 4 5 5 5 4 4 4 4 4 3 2 2 3 3 3 2 4 4 4 5 5 8 10 8 5 6 9 9 9 10 10 10 12 13 12 14 15 14 13 13 14 16 16 15 15 15 15 16 17 19
14 14 14 13 13 13 12 12 11 11 11 11 11 11 11 11 10 10 9 8 9 9 8 8 7 6 6 6 6 5 5 5 5 5 6 6 6 6 6 6 6 6 5 6 5 4 5 4 4 4 3 4 4 5 6 6 7 9 8 6 7 8 6 7 10 11 11 13 13 12 14 15 13 12 12 13 15 16 16 16 16 16 17 18 20
15 15 15 14 14 13 13 12 12 12 12 12 12 12 12 12 11 11 9 9 9 9 9 9 8 7 7 7 7 7 7 7 7 6 6 7 7 7 7 7 7 7 6 6 6 6 6 4 5 5 4 5 5 5 6 7 6 7 7 6 7 7 5 6 9 11 12 14 13 12 13 14 12 12 12 12 14 16 16 16 16 16 17 19 21
16 16 15 15 15 14 14 13 13 13 12 12 13 12 13 13 12 12 11 10 10 10 10 10 10 9 8 9 9 8 8 9 8 8 8 7 7 7 8 7 7 7 6 7 6 6 6 5 5 6 5 5 6 6 6 7 7 6 6 6 6 6 6 6 7 9 11 14 13 11 12 13 12 11 11 12 13 14 15 16 17 17 18 20 21
17 17 17 16 16 15 15 15 14 14 13 13 13 13 13 13 13 13 12 11 11 11 11 11 11 10 10 10 10 9 9 9 9 9 9 8 8 8 8 8 8 7 7 7 7 7 7 7 6 7 6 5 7 7 7 7 7 6 6 6 6 5 6 7 6 8 10 13 14 11 11 12 12 11 11 11 12 13 14 15 17 17 18 19 21
18 18 18 17 17 16 17 17 16 15 15 15 15 14 14 14 13 14 13 12 12 12 12 12 11 11 11 11 10 10 10 10 10 10 9 9 9 8 9 9 9 9 8 8 9 8 8 8 8 8 7 7 8 8 7 7 7 6 6 6 6 5 6 7 7 8 10 13 12 10 10 11 11 11 11 11 11 12 13 14 16 16 17 19 21
19 18 18 18 18 18 18 18 18 17 16 16 16 16 15 15 14 14 14 14 14 13 13 13 12 12 11 11 11 10 10 11 10 10 10 10 10 9 9 9 9 9 9 9 10 9 10 10 9 8 8 8 8 8 7 7 7 7 6 6 7 6 6 7 7 8 10 11 9 9 12 12 11 11 10 10 10 11 11 13 14 15 16 18 20
20 19 18 18 19 19 19 19 18 18 17 17 17 17 17 16 15 15 14 14 14 14 14 14 13 13 13 13 12 12 12 12 11 11 10 10 10 10 10 10 10 10 10 10 10 10 11 11 10 10 9 9 9 8 8 8 8 8 7 7 7 6 6 6 6 6 7 6 5 8 11 12 12 12 11 10 9 10 10 11 13 14 15 17 19
20 20 19 19 19 19 20 20 19 18 18 18 18 18 18 17 16 16 15 15 14 14 14 14 14 14 14 14 13 13 13 13 13 12 11 10 11 11 11 11 10 11 11 11 11 11 11 11 11 10 10 9 9 9 8 8 8 9 8 8 7 6 6 6 6 6 5 6 7 9 10 10 12 13 12 11 9 9 9 10 11 12 14 16 18
20 21 20 20 19 19 20 20 20 19 18 18 18 18 18 18 18 17 17 17 16 16 15 15 15 15 15 15 14 14 14 14 14 13 12 11 11 11 11 11 11 11 12 11 11 11 11 11 11 10 10 10 10 10 10 9 9 9 8 8 8 7 7 7 6 6 6 6 7 7 7 8 10 12 13 11 9 8 9 10 10 11 13 15 17
20 20 21 20 20 19 19 20 20 20 20 19 19 19 19 18 19 19 18 18 18 18 17 16 16 16 16 16 16 15 15 15 16 16 15 13 13 12 10 10 11 12 12 12 12 12 11 12 11 11 11 11 11 10 10 9 9 9 8 8 9 9 8 8 8 7 6 6 6 5 5 6 7 9 10 9 9 10 8 7 9 11 13 13 15
20 19 20 20 21 20 20 19 20 20 21 21 21 23 23 21 19 19 19 18 18 18 18 18 17 17 17 17 16 16 17 19 20 21 19 17 17 16 14 13 12 12 13 13 13 13 13 12 12 12 12 12 11 10 10 10 10 9 9 9 9 9 9 9 9 7 6 6 6 6 7 7 7 8 9 8 10 8 4 4 7 11 12 12 14
20 19 19 20 21 21 21 20 20 21 21 22 23 27 29 28 24 20 18 19 19 19 19 19 19 18 18 18 17 17 18 21 23 23 22 21 19 19 19 18 17 16 15 14 14 13 14 14 14 13 13 13 12 11 12 12 11 10 9 9 9 10 9 9 9 8 6 6 6 7 9 8 8 9 9 9 8 6 7 9 11 11 11 12 13
20 20 20 20 21 22 22 22 22 22 22 22 24 28 31 32 31 27 23 20 20 20 20 20 20 19 19 19 18 18 17 18 20 20 20 21 20 20 20 20 20 21 21 20 18 16 14 14 14 14 14 13 13 12 12 12 10 9 10 10 10 11 11 10 10 9 7 6 7 8 10 8 7 8 10 10 8 8 11 13 12 10 10 11 11
18 19 20 20 21 21 22 23 23 23 23 23 25 29 31 33 34 33 29 25 23 22 21 20 20 20 20 19 19 19 18 18 19 19 18 19 20 20 20 20 21 22 23 24 24 23 20 17 15 15 15 14 13 13 12 10 10 10 11 12 12 12 12 11 11 11 9 8 8 10 11 9 7 8 9 8 8 10 14 15 11 9 10 10 10
17 19 20 20 20 21 21 22 23 23 24 24 25 28 31 33 34 35 33 29 26 25 24 22 21 21 21 20 20 20 19 19 19 19 19 19 19 19 19 20 22 23 24 25 25 26 26 25 22 20 17 15 15 14 13 11 11 12 12 12 12 13 13 13 14 14 12 12 11 11 11 10 8 9 9 7 8 10 13 15 12 9 10 9 9
18 19 20 20 20 20 21 22 22 23 24 24 26 29 31 33 33 33 34 31 28 26 25 24 24 23 23 22 21 21 21 21 21 21 21 19 18 18 18 18 20 21 22 24 24 25 27 28 28 26 21 19 18 17 15 14 13 13 13 13 13 14 14 15 15 15 15 14 12 11 11 10 9 9 9 8 7 8 11 15 13 10 10 9 8
19 19 19 19 20 20 21 21 22 23 24 24 27 30 32 33 32 32 33 32 29 27 27 26 25 25 25 24 24 24 23 23 24 25 25 21 18 17 18 18 18 19 21 22 23 25 25 26 27 26 23 21 20 20 19 17 15 13 13 13 14 13 12 14 15 15 15 14 13 12 11 10 9 9 10 9 7 7 10 14 13 11 10 8 7
20 20 20 19 19 19 20 21 22 23 24 25 27 30 32 33 32 32 33 31 27 27 27 27 26 26 26 26 26 25 25 25 25 27 28 26 22 20 19 19 19 20 21 21 22 24 25 24 24 24 24 24 23 23 24 23 20 16 13 13 14 13 13 13 14 15 15 14 13 12 12 11 9 9 10 9 7 8 10 12 13 12 10 8 7
21 22 21 20 20 20 19 20 21 23 24 24 27 30 33 33 33 34 33 29 26 26 26 26 27 27 28 29 30 28 27 26 26 26 27 28 25 22 21 20 20 22 22 21 20 22 23 23 22 23 24 26 26 26 26 26 25 22 20 18 16 14 14 15 15 15 14 15 14 12 12 12 10 9 10 9 8 11 11 11 14 14 12 9 8
21 22 22 23 23 24 24 23 22 23 25 25 26 29 33 34 34 36 33 27 25 26 26 25 26 27 28 30 32 34 33 31 29 28 28 28 27 24 22 21 22 24 23 21 20 20 20 20 20 21 23 25 26 27 27 27 26 25 25 23 19 16 16 17 16 14 13 13 13 13 13 12 11 10 10 9 9 9 9 11 13 13 11 10 8
Wind_Direction
108 105 103 102 103 105 104 101 97 92 89 85 81 78 77 74 74 78 82 88 95 100 104 107 106 105 106 105 104 102 99 98 96 96 95 99 97 74 76 93 101 98 88 86 85 79 73 68 63 56 55 53 50 47 42 32 24 20 16 11 8 6 3 0 357 360 1 358 359 355 352 352 349 347 346 347 351 354 356 358 357 354 350 350 355
109 108 109 109 108 106 104 101 95 89 86 81 76 74 75 73 71 71 72 78 85 90 95 98 100 101 102 102 102 100 99 99 99 101 99 100 106 88 71 78 86 85 84 86 89 88 81 76 69 63 60 56 47 40 31 23 14 8 5 0 356 352 351 351 351 354 353 352 351 348 346 345 342 340 340 344 349 351 354 358 357 348 340 337 337
113 114 116 116 114 108 102 98 91 85 81 77 73 72 73 72 69 67 66 70 76 80 88 94 97 99 100 99 98 96 96 99 100 102 101 98 105 101 77 68 72 73 77 83 89 93 88 84 78 70 68 55 41 24 11 1 355 350 346 340 339 338 339 343 343 346 345 341 341 339 337 338 336 334 336 341 346 350 354 356 355 346 337 329 322
114 115 121 120 115 110 100 94 90 83 75 71 70 71 75 73 68 66 66 69 73 75 83 90 93 97 99 98 95 95 93 92 94 94 98 98 100 106 97 73 63 64 66 69 81 92 96 100 93 74 49 27 11 359 343 339 336 330 324 321 324 330 332 335 336 335 331 329 333 331 327 327 327 327 330 335 341 348 350 347 346 341 331 320 313
116 117 120 119 112 107 100 95 89 82 75 71 70 74 78 77 73 70 69 71 73 74 82 89 90 93 95 96 94 92 92 91 91 91 95 99 99 102 106 105 77 59 61 58 55 58 68 112 190 293 324 327 334 336 326 322 319 314 315 317 319 323 324 323 320 319 318 320 323 320 317 317 317 320 322 326 331 336 338 336 335 328 318 309 305
121 119 117 119 115 105 100 98 90 83 82 76 75 79 76 72 70 68 68 67 67 72 83 88 91 91 91 94 94 92 90 87 87 88 90 92 96 98 100 106 98 83 60 40 41 38 7 321 296 286 290 301 310 312 308 306 306 306 309 312 313 313 312 310 307 307 311 313 312 312 312 311 310 312 313 317 322 327 329 326 323 318 310 304 298
125 121 116 120 118 110 103 98 92 89 86 78 74 77 70 64 59 59 64 60 63 74 84 91 95 97 96 97 96 95 93 88 87 91 91 89 93 95 93 94 94 95 83 32 22 34 26 353 316 304 293 300 305 302 300 299 298 298 300 301 300 301 303 302 301 302 306 308 308 308 309 311 312 312 313 315 320 325 325 321 320 315 308 303 297
130 126 119 117 116 112 106 101 98 93 87 77 74 73 65 63 52 53 60 53 61 75 84 92 97 102 107 107 101 97 94 90 88 85 82 83 87 92 92 92 82 66 72 76 44 14 22 19 342 324 314 309 308 305 303 305 307 305 306 304 299 298 296 295 298 301 305 309 312 314 314 318 322 322 321 321 322 323 321 319 318 314 309 304 298
139 133 123 121 118 114 111 109 105 97 90 79 78 71 60 62 55 53 53 46 58 72 80 87 94 103 108 107 101 94 90 84 80 79 80 82 83 88 89 88 82 69 68 82 81 23 12 22 22 11 2 337 319 315 314 318 323 326 330 329 323 317 310 309 312 312 316 320 321 323 324 324 325 325 325 324 322 321 320 319 317 315 311 306 301
148 140 128 128 123 118 117 115 111 99 94 87 82 72 59 62 63 59 49 44 55 61 66 72 81 97 102 105 101 89 87 81 74 75 79 84 78 80 88 87 89 86 78 68 77 79 27 17 25 28 18 9 355 344 345 344 342 343 344 344 346 345 341 338 336 334 335 333 331 330 329 328 327 327 326 325 323 321 321 320 318 316 312 308 304
151 145 138 134 130 127 124 121 118 102 88 90 86 79 68 64 70 72 57 47 49 47 54 60 63 72 79 100 105 94 88 82 80 83 78 84 79 75 94 95 95 93 86 85 81 82 74 32 21 21 6 12 22 19 10 2 355 349 344 347 350 351 352 350 347 347 343 341 339 338 337 335 333 332 330 328 326 324 323 321 319 318 316 313 308
155 151 144 137 133 131 128 124 121 111 92 84 83 81 73 68 70 71 63 52 45 36 39 38 44 57 58 97 114 114 106 83 79 92 88 90 88 77 86 93 94 95 90 90 93 80 75 44 18 39 348 357 14 21 18 11 359 349 340 341 343 344 345 345 344 344 344 346 346 345 344 342 339 336 334 332 329 328 326 324 322 320 319 317 314
163 158 151 145 138 133 130 128 125 121 106 93 86 86 83 77 75 68 60 54 39 27 29 17 18 66 66 120 128 127 120 110 104 106 103 101 100 90 84 95 100 101 102 89 82 100 115 131 347 27 324 325 346 358 4 10 3 353 345 337 339 340 340 340 342 345 347 348 347 347 345 343 341 338 336 335 333 331 329 326 325 323 321 319 317
171 165 157 153 146 137 133 132 134 130 119 111 101 96 95 90 93 102 128 91 27 29 34 355 320 94 84 120 133 126 115 123 124 118 115 107 110 104 91 101 101 94 102 106 105 124 132 122 84 350 326 314 313 325 338 343 339 347 354 350 350 347 345 347 346 349 349 348 346 344 342 339 337 335 332 331 329 328 327 325 325 323 322 320 318
178 171 162 157 151 144 143 142 143 144 134 122 111 104 104 104 115 122 167 163 143 80 52 3 9 78 105 126 132 129 121 123 116 107 110 107 111 107 94 98 101 94 103 120 116 107 104 100 72 323 305 308 304 300 301 299 315 345 3 4 7 4 360 357 353 353 350 346 343 339 336 333 330 328 325 324 323 323 322 322 321 320 319 318 316
181 176 168 163 155 149 150 151 151 151 144 123 113 117 121 130 133 123 200 179 139 128 92 51 34 46 96 131 132 133 120 121 118 108 110 111 95 87 86 98 103 101 117 115 99 96 114 120 80 294 295 307 311 302 292 295 325 0 20 18 17 10 4 359 352 349 344 339 336 331 328 325 322 321 319 319 319 319 318 317 316 315 314 313 312
181 180 174 168 161 157 157 158 161 158 151 133 122 133 139 154 152 144 197 199 132 142 123 90 60 42 38 72 114 118 84 90 110 93 78 98 92 86 83 99 104 101 111 101 93 117 146 139 191 260 281 310 317 305 295 297 322 354 10 8 8 1 352 349 343 338 333 328 325 322 320 317 316 316 315 315 314 314 313 311 311 310 310 309 308
180 181 176 171 167 166 169 168 169 168 167 162 146 156 164 163 164 165 176 191 196 165 151 146 104 55 56 85 80 83 66 48 98 101 42 53 84 104 95 92 105 114 130 129 135 142 127 137 186 230 245 283 298 295 296 300 325 348 350 343 348 347 342 340 336 332 328 324 321 319 317 315 314 313 312 311 310 310 309 308 308 307 307 307 307
180 181 178 174 174 176 183 180 177 178 174 175 175 174 162 152 162 168 163 172 207 225 201 174 151 191 189 136 122 82 67 38 59 125 120 56 31 107 97 96 109 113 117 126 125 110 94 104 147 144 138 120 301 292 299 306 337 356 350 341 340 338 337 335 332 329 325 322 320 318 317 315 314 312 312 311 310 310 309 308 309 309 310 310 310
181 182 181 179 182 185 189 185 183 183 179 182 186 174 148 144 160 168 170 177 193 225 225 214 210 185 171 170 156 124 112 78 55 60 147 114 134 98 85 91 96 88 83 88 87 94 99 90 93 113 112 98 58 3 351 317 334 350 342 338 334 329 329 328 326 325 323 322 319 318 318 317 315 315 315 315 314 314 314 315 317 317 317 317 317
187 186 186 186 190 192 192 189 187 187 190 191 183 173 163 159 168 176 183 187 188 208 218 236 244 190 158 174 170 170 176 130 119 167 96 79 126 115 108 108 95 84 65 63 71 82 91 90 108 112 92 88 70 20 2 323 340 345 328 327 326 324 326 325 325 325 322 321 319 319 320 320 321 322 322 322 322 322 324 325 325 325 325 326 326
190 191 191 192 196 197 195 193 193 195 197 194 181 179 177 170 174 180 186 190 189 200 212 220 233 205 177 174 183 203 177 167 223 152 97 102 279 226 132 117 101 99 64 45 64 73 73 77 109 99 75 62 55 27 21 8 9 3 338 335 336 332 333 331 329 328 325 323 323 324 325 326 328 328 328 330 330 331 332 332 333 332 333 334 336
190 191 193 196 199 200 199 197 198 200 199 195 189 184 181 175 172 176 185 196 197 202 216 213 207 207 201 193 201 208 187 189 203 31 43 109 308 295 77 53 25 102 82 49 70 80 79 79 77 76 66 57 56 48 50 42 24 14 358 350 350 345 343 339 334 333 331 329 329 331 331 331 332 332 334 336 337 338 338 339 341 343 346 349 352
195 192 194 195 198 201 202 202 202 202 199 195 191 189 185 176 173 177 184 194 201 204 212 213 203 207 210 207 212 209 200 205 190 179 214 67 326 284 345 43 285 113 93 111 144 108 86 79 74 70 61 57 52 44 49 45 10 3 0 356 358 356 348 342 339 336 334 334 334 334 334 335 338 341 343 343 343 344 346 351 356 360 2 5 6
203 201 197 194 197 202 204 207 208 206 201 194 191 191 194 188 183 186 186 191 203 207 213 215 206 210 216 211 216 213 202 210 218 212 212 194 224 272 329 308 249 150 99 55 189 147 120 92 80 64 51 43 41 36 37 36 360 354 357 360 357 355 348 341 341 339 338 339 338 340 343 345 347 347 348 350 353 357 3 8 9 9 8 6 4
210 207 202 196 198 202 205 210 213 211 206 201 195 193 198 200 195 196 194 194 205 212 217 218 210 213 222 222 223 221 211 215 229 238 236 224 212 264 330 294 271 199 140 152 234 181 135 121 97 54 43 31 31 30 24 22 353 349 360 11 345 341 346 345 342 341 342 344 347 350 350 348 349 351 355 1 8 13 14 13 9 7 4 1 1
213 210 207 203 201 202 205 211 216 216 213 209 205 201 203 205 204 207 206 201 210 219 219 215 210 209 215 227 234 225 224 233 235 240 245 245 241 279 319 303 297 286 163 163 182 174 124 146 124 49 28 27 25 11 18 20 342 346 4 16 337 330 340 344 341 342 346 351 355 352 347 348 352 357 4 13 19 19 14 10 7 6 5 4 6
214 210 210 208 206 206 207 211 214 217 219 216 215 212 209 212 213 213 215 211 211 219 221 216 212 213 210 216 233 233 229 243 249 246 243 247 244 251 284 305 326 312 269 184 172 157 137 184 141 75 19 14 15 348 7 7 337 348 359 353 339 325 330 337 338 343 351 353 353 350 349 353 357 3 12 20 20 15 10 9 9 9 10 10 10
218 215 215 214 212 211 211 213 214 217 221 220 220 219 217 220 222 220 222 219 212 218 228 226 216 216 212 207 222 234 232 240 252 247 234 246 245 243 258 274 313 303 286 296 251 193 111 276 175 95 28 358 349 329 343 326 328 349 350 334 344 325 322 333 340 347 353 350 349 352 355 358 360 5 15 20 16 10 9 13 14 13 12 10 7
220 221 219 216 216 216 215 215 215 217 220 221 222 222 222 227 230 229 229 226 220 222 228 233 228 220 216 212 217 228 230 231 240 237 225 237 242 241 246 242 254 281 292 302 280 262 344 305 305 49 20 341 328 315 323 307 314 339 346 327 334 330 327 336 345 346 348 347 350 355 359 359 0 6 13 16 12 9 12 16 14 12 10 7 5
218 219 218 218 219 219 218 218 217 218 220 221 222 222 225 229 231 232 229 226 228 231 229 231 230 221 218 220 219 225 233 233 236 236 230 235 239 239 239 236 242 260 279 288 279 271 291 295 313 334 320 319 320 306 315 307 305 326 340 323 327 342 334 324 330 336 337 344 351 357 359 359 359 1 7 10 9 9 13 15 12 9 7 5 5
217 217 219 221 222 221 221 221 219 219 220 221 222 222 225 228 232 235 231 224 228 234 234 234 231 223 221 226 226 228 233 234 238 238 234 234 237 238 238 236 242 245 253 269 273 277 284 286 294 295 293 307 303 291 304 310 308 322 334 321 325 345 336 296 306 320 327 337 349 357 357 356 355 357 1 3 6 9 11 11 9 7 4 4 5
218 218 219 220 222 222 223 224 222 221 219 220 221 222 224 227 230 236 235 230 231 234 236 235 235 234 230 233 236 235 237 239 242 244 240 237 233 235 239 237 241 240 236 251 265 277 284 281 276 278 290 301 294 287 298 306 311 321 327 324 321 332 331 299 293 303 316 329 341 354 355 351 350 353 355 358 3 6 6 5 5 4 2 3 5
219 221 221 221 221 222 223 225 224 223 221 221 222 222 224 227 228 233 233 232 233 234 234 234 234 234 235 238 240 240 240 240 243 248 247 245 239 236 237 236 241 241 232 240 258 272 278 275 272 273 275 282 286 289 294 300 310 315 318 323 320 317 322 318 294 289 307 324 336 347 351 348 347 348 350 354 358 1 1 360 360 1 1 2 5
219 222 223 223 222 221 222 223 222 224 224 225 227 225 225 226 229 232 233 232 233 234 234 232 231 232 233 237 241 242 241 239 242 248 249 248 248 246 244 242 246 246 239 239 247 260 273 278 276 275 273 274 281 285 287 291 298 301 307 311 311 309 311 315 296 275 294 320 332 338 344 347 345 342 345 349 352 357 358 355 355 358 360 2 5
220 221 222 223 223 221 221 222 221 223 225 226 228 228 227 227 230 233 234 234 235 235 236 234 232 232 232 236 239 242 243 243 243 246 246 244 242 243 246 244 245 247 245 241 242 250 264 271 271 271 274 276 277 278 280 287 287 285 291 293 296 302 307 315 302 272 287 315 326 332 339 343 343 338 338 342 345 351 353 352 353 355 358 1 5
220 220 219 220 221 221 222 224 223 224 225 226 227 229 229 229 230 233 234 234 234 235 237 237 236 235 235 237 240 241 242 243 244 245 244 241 239 240 242 242 241 243 244 242 241 244 252 261 266 268 269 269 270 270 270 278 284 284 281 276 276 282 296 319 318 293 296 310 317 322 327 334 341 336 330 334 339 344 347 348 350 354 357 360 3
219 219 218 217 218 220 223 226 226 226 226 226 227 228 230 231 230 232 233 234 234 234 235 237 238 239 240 241 241 241 241 242 244 245 243 239 239 241 241 241 241 240 241 241 240 241 245 253 260 263 264 263 263 266 262 262 275 285 285 278 271 265 274 302 319 309 299 295 298 309 313 323 337 334 324 325 330 334 339 342 346 351 355 358 2
218 219 219 218 218 219 223 227 228 228 226 226 227 227 229 229 228 230 232 234 235 235 237 238 240 241 243 243 243 242 240 241 242 244 244 241 242 242 240 240 240 240 241 241 239 241 244 249 254 258 261 260 259 263 262 256 265 273 272 272 274 270 268 277 292 301 299 291 288 287 288 304 327 330 322 315 315 323 331 334 341 349 353 357 0
219 221 221 220 219 221 224 226 228 228 227 227 227 227 228 228 227 227 230 233 236 237 239 240 241 243 244 245 246 244 242 240 239 239 241 242 244 246 243 240 238 238 242 244 243 243 245 249 254 256 259 259 257 261 262 255 257 263 260 263 274 279 278 274 276 281 286 294 291 275 272 296 316 324 326 320 308 313 322 324 334 347 353 355 358
222 224 224 224 223 223 224 225 226 226 227 228 227 226 225 225 226 229 230 233 236 238 240 241 242 243 244 246 248 247 245 241 239 240 243 242 243 246 246 244 242 240 241 244 244 243 246 249 253 254 255 255 253 254 255 252 256 263 263 265 271 277 281 280 278 275 269 284 297 278 266 283 293 305 320 315 297 304 319 324 329 339 346 352 356
222 223 224 226 227 227 226 225 226 226 227 229 228 228 228 226 226 229 232 234 236 237 239 241 243 243 245 247 249 249 247 246 248 252 255 253 250 250 247 243 242 242 244 245 244 243 244 247 251 252 253 255 255 254 255 256 260 263 263 265 270 278 284 283 282 278 259 262 290 290 281 279 272 281 297 290 280 285 272 259 296 322 336 346 354
220 221 222 224 227 230 230 229 228 228 230 230 230 233 237 237 234 232 235 237 238 238 239 240 243 245 246 248 250 250 247 247 252 258 261 259 255 254 252 247 242 240 242 245 247 245 245 247 250 252 254 257 258 258 261 264 265 262 261 266 271 275 281 281 284 282 263 261 281 286 286 281 263 271 287 282 274 258 231 253 289 315 329 340 350
220 221 223 224 226 229 232 233 233 233 234 233 232 236 242 244 243 240 238 240 242 241 241 241 242 245 246 248 249 249 246 244 246 252 258 261 258 255 254 252 248 244 242 243 245 245 246 249 251 250 252 255 256 255 258 264 267 262 257 260 264 268 273 274 278 282 276 276 282 281 286 282 249 258 280 273 256 244 245 264 291 310 319 332 343
224 225 226 226 226 228 230 233 235 236 238 236 235 238 243 246 247 245 241 240 243 245 244 243 243 243 243 245 247 247 246 245 242 240 244 253 259 259 257 255 252 249 246 244 243 243 245 250 253 252 250 251 253 254 253 256 260 257 255 257 258 263 268 269 272 278 278 278 277 276 283 281 248 255 278 260 224 232 255 271 287 297 308 324 334
229 230 231 231 229 228 229 232 234 237 239 238 237 240 244 246 248 247 244 241 242 245 245 245 245 244 243 242 243 243 243 241 239 236 236 240 246 252 255 255 254 252 250 247 245 243 243 243 246 249 249 248 249 251 251 248 246 248 252 258 261 264 268 271 273 274 272 268 267 268 273 273 257 257 271 254 216 225 255 271 279 286 297 310 321
229 231 234 235 234 231 231 232 235 238 239 238 237 239 244 248 249 249 246 243 242 244 245 244 244 244 244 242 242 242 241 239 237 238 237 234 234 237 241 245 248 248 247 246 244 243 242 241 242 244 246 247 249 251 252 248 245 246 249 255 263 267 270 273 272 269 266 260 250 248 259 266 261 256 261 253 226 221 246 262 270 276 282 294 311
229 232 236 238 236 235 234 233 236 240 242 240 239 240 244 247 248 248 247 244 243 243 244 243 243 243 242 241 240 241 240 238 239 241 241 238 234 235 237 238 241 243 244 243 241 241 241 240 239 240 242 244 245 246 246 245 243 244 248 254 258 259 262 268 267 264 263 257 238 231 247 262 260 256 261 256 228 220 241 254 261 268 270 278 295
227 230 233 237 238 237 237 237 237 241 244 243 241 242 246 246 246 245 245 243 242 243 244 244 243 242 241 240 239 240 240 239 239 242 244 242 237 237 240 242 243 245 246 245 244 245 247 246 243 240 240 241 242 242 242 242 242 241 244 249 249 246 251 258 262 263 263 259 245 233 240 255 257 256 264 259 229 228 244 245 246 257 265 266 276
226 227 227 232 236 236 237 240 239 241 245 245 242 243 246 246 244 243 242 239 238 241 243 244 242 242 242 242 241 240 240 240 240 240 243 243 238 236 240 243 244 247 247 246 246 248 250 251 250 247 244 244 245 244 243 244 243 240 239 239 239 241 245 249 256 263 264 263 256 238 233 249 258 255 260 260 244 241 241 231 232 246 257 255 253
228 229 227 229 232 234 236 238 240 242 246 246 244 245 247 247 244 241 238 234 235 238 240 242 242 241 242 243 244 243 243 242 241 239 240 241 237 234 237 240 242 245 246 245 245 246 243 240 240 242 245 248 248 247 245 244 242 238 235 235 234 237 241 244 249 255 259 265 254 226 220 243 258 254 252 258 263 251 218 200 215 235 243 239 236
Height
867 867 868 869 870 870 870 871 871 872 872 873 873 874 874 874 875 875 876 876 877 878 878 878 878 879 879 879 879 879 880 880 880 881 881 882 882 881 881 882 882 882 882 882 882 883 883 883 884 884 884 884 884 884 884 884 883 883 883 882 882 882 881 881 880 879 879 878 877 877 876 876 875 874 873 872 872 871 870 870 869 868 868 867 867
867 868 869 870 870 871 871 872 872 872 872 873 873 874 874 875 875 875 876 876 876 877 877 877 878 878 879 879 879 879 879 880 880 881 881 882 882 882 881 882 882 882 882 882 882 883 883 883 884 884 884 884 884 884 884 884 883 883 883 882 882 882 881 881 880 879 879 878 877 877 876 876 875 874 873 872 871 871 870 869 869 868 868 867 866
868 869 870 871 871 871 872 872 872 873 873 873 874 874 875 875 875 876 876 875 876 876 877 877 877 878 878 878 879 879 879 880 880 880 881 881 882 882 882 882 882 882 882 882 883 883 883 883 883 884 884 884 884 884 884 883 883 883 882 882 882 881 881 880 880 879 879 878 877 877 876 875 874 874 873 872 871 871 870 869 869 868 868 867 866
869 870 871 871 872 872 872 872 873 873 874 874 875 875 875 876 876 876 876 876 876 876 876 876 877 878 878 878 879 879 880 880 880 880 881 881 882 882 882 882 882 882 882 882 882 883 883 883 883 883 883 884 884 883 883 883 883 882 882 882 881 881 881 880 880 879 878 878 877 876 876 875 874 873 872 872 871 870 870 869 869 868 868 867 866
870 871 871 872 872 873 873 873 874 874 875 875 875 876 876 876 876 876 876 876 876 876 876 876 877 877 878 878 879 879 880 880 880 880 881 881 882 882 883 883 882 882 882 882 882 882 882 882 883 883 883 883 883 883 883 882 882 882 882 881 881 881 881 880 879 879 878 877 877 876 875 874 874 873 872 871 871 870 870 869 869 868 867 867 866
870 871 872 872 873 873 874 874 874 875 875 876 876 876 876 876 876 876 876 876 876 877 877 877 877 878 878 879 879 880 880 880 880 880 881 881 882 882 882 883 882 882 882 882 882 882 882 882 882 882 882 882 882 882 882 882 882 881 881 881 881 880 880 880 879 878 878 877 876 875 875 874 873 873 872 871 871 870 870 869 869 868 867 866 865
871 872 872 872 873 873 874 875 875 876 876 876 877 877 877 877 877 876 877 877 877 877 877 877 878 878 879 879 880 880 880 881 881 881 881 881 881 882 882 882 882 882 882 882 882 882 882 882 882 882 881 882 881 881 881 881 881 881 881 880 880 880 879 879 878 878 877 876 876 875 874 873 873 872 871 871 870 870 869 869 868 867 867 866 865
871 872 873 873 873 874 874 875 875 876 877 877 877 877 877 877 877 877 877 877 877 877 878 878 878 879 879 879 880 880 880 881 881 880 881 881 881 881 882 882 882 882 882 882 882 882 882 881 881 881 881 881 881 881 881 880 880 880 880 880 879 879 879 878 878 877 876 876 875 874 874 873 872 872 871 870 870 869 869 868 867 866 866 865 864
871 872 873 873 874 874 875 875 876 876 877 877 877 878 878 878 878 878 878 878 877 877 878 878 879 879 879 879 879 880 880 881 881 881 881 881 881 881 881 882 882 882 881 882 882 882 882 881 881 881 881 881 880 880 880 880 880 880 879 879 879 878 878 877 877 876 876 875 874 874 873 872 872 871 870 870 869 869 868 867 866 865 865 864 863
872 872 873 874 874 875 875 876 876 877 877 877 878 878 878 878 878 878 879 879 878 878 878 878 879 878 878 879 880 880 880 881 881 881 880 880 880 880 881 881 881 881 882 882 882 882 882 881 881 881 881 880 880 880 880 880 879 879 879 879 878 878 877 877 876 876 875 874 874 873 872 872 871 870 870 869 869 868 867 866 865 864 863 863 862
872 873 873 874 875 875 876 876 876 877 877 877 877 878 878 878 879 879 879 879 879 879 879 879 878 878 879 879 880 880 880 881 880 880 880 880 880 880 880 881 881 881 881 881 882 882 882 882 881 881 881 880 880 880 879 879 879 879 879 878 878 877 877 876 876 875 874 874 873 872 872 871 870 870 869 868 868 867 866 865 864 863 862 861 861
872 873 874 874 875 876 876 876 876 877 877 877 878 878 878 879 879 879 880 880 880 879 879 879 879 879 879 879 879 880 880 880 880 880 880 879 880 880 879 880 880 881 881 881 882 882 882 882 882 882 882 881 880 880 879 879 879 879 878 878 877 877 876 876 875 874 874 873 872 872 871 870 870 869 868 868 867 866 865 864 863 862 861 860 859
872 873 873 874 875 876 876 876 877 877 878 878 878 878 878 879 879 879 880 880 880 880 880 880 879 879 879 878 879 879 880 880 880 879 879 879 879 880 880 879 880 880 881 881 881 881 882 882 882 882 882 881 880 880 879 879 879 878 878 877 877 876 876 875 875 874 873 873 872 871 871 870 869 868 868 867 866 865 864 863 862 860 860 859 858
872 873 873 874 875 876 876 876 877 877 877 878 878 879 879 879 879 879 880 880 880 880 880 880 879 878 878 878 878 879 879 879 879 878 878 878 878 878 879 879 879 880 880 881 881 881 881 881 881 882 881 881 881 880 880 879 879 878 877 877 876 876 875 875 874 873 873 872 872 871 870 869 869 868 867 866 865 864 863 862 860 859 858 857 856
872 873 873 874 875 875 876 876 877 877 878 878 878 879 879 879 880 880 880 880 880 880 881 880 879 878 879 879 878 879 881 879 877 878 877 878 877 877 878 878 878 880 880 880 880 880 881 881 881 881 881 881 881 880 880 879 879 878 877 877 876 875 875 874 874 873 873 872 871 871 870 869 868 867 866 865 864 863 861 860 859 857 856 855 854
872 873 874 874 875 875 876 876 877 877 878 878 879 879 879 880 880 880 880 879 880 880 881 880 879 879 879 879 877 879 883 880 876 877 877 877 876 876 877 877 878 879 879 879 880 880 880 881 881 881 880 880 880 880 880 879 879 878 877 876 876 875 875 874 873 873 872 872 871 870 869 868 867 865 864 863 862 861 860 858 857 855 854 853 851
872 873 874 874 874 875 876 876 876 877 877 878 879 879 880 880 880 880 880 879 879 880 881 880 880 880 880 880 880 882 883 878 877 879 876 875 876 876 877 877 877 879 879 879 879 880 880 880 880 880 880 880 880 880 879 879 878 877 877 876 876 875 874 874 873 873 872 871 870 869 868 866 865 864 862 861 860 859 858 856 855 853 852 851 849
872 873 873 874 874 875 875 876 876 877 877 878 879 879 879 880 880 880 880 880 880 880 880 880 881 881 880 880 881 883 881 878 880 882 878 876 875 876 876 876 877 878 878 878 879 879 879 879 879 879 879 880 879 879 879 879 878 877 877 876 876 875 874 873 873 872 871 870 869 867 866 865 863 862 861 859 858 857 856 854 853 852 850 849 847
872 872 873 874 874 875 875 876 877 877 877 878 878 879 879 880 880 880 880 881 881 880 880 880 880 881 881 880 880 881 881 880 880 881 882 880 876 874 875 875 876 876 877 877 877 878 878 878 879 879 879 879 879 879 878 878 878 877 876 876 875 874 874 873 872 871 870 868 867 866 864 863 862 860 859 858 856 855 854 852 851 850 849 847 846
871 872 872 873 874 874 875 875 876 877 877 878 878 879 879 880 880 880 880 880 881 881 880 880 880 880 880 880 881 881 881 880 880 880 881 882 878 875 875 875 875 876 876 876 876 877 878 878 878 878 878 879 878 878 878 878 877 876 876 875 874 874 873 872 871 870 868 867 865 864 863 862 860 859 858 856 855 854 852 851 850 849 847 846 844
871 871 872 873 874 874 875 875 876 876 877 877 878 879 879 880 880 880 880 880 881 881 881 881 880 880 880 881 881 881 880 880 880 879 879 881 880 875 875 875 875 876 876 876 876 876 877 877 878 878 878 878 878 878 878 877 876 876 875 874 874 873 872 871 870 868 867 865 864 863 862 860 859 858 856 855 854 853 851 850 849 848 846 845 843
870 871 872 873 873 874 874 875 875 876 876 877 877 878 879 879 880 879 880 880 880 880 880 881 880 880 880 881 881 881 880 880 879 878 878 880 879 875 874 874 874 876 877 876 877 877 877 877 877 877 878 878 878 877 877 876 876 875 875 873 873 872 871 870 868 867 865 864 863 862 860 859 858 857 856 854 853 852 851 849 848 846 845 843 842
869 870 871 872 873 873 874 874 875 875 876 877 877 878 878 879 879 879 879 879 880 880 880 880 880 880 880 880 881 880 880 880 879 879 879 879 879 876 874 874 875 875 877 877 877 877 877 877 877 877 878 878 877 877 876 875 875 874 874 873 872 871 870 868 867 866 864 863 862 861 859 858 857 856 855 854 852 851 849 848 846 845 843 842 840
868 869 870 871 872 873 874 874 875 875 875 876 877 877 877 878 879 879 879 879 879 879 879 879 879 880 879 879 880 879 879 879 879 880 880 880 880 878 875 876 875 874 876 877 876 876 877 877 877 878 878 878 877 876 876 875 874 873 873 872 871 870 868 867 866 865 863 862 861 860 859 857 856 855 854 853 851 849 848 846 845 843 842 841 840
867 868 869 870 871 872 873 873 874 875 875 876 876 877 877 877 878 878 878 879 879 879 879 879 879 879 879 879 879 878 878 879 878 879 879 880 880 878 876 876 875 874 876 876 876 876 877 877 878 878 878 878 877 876 876 875 874 873 872 871 870 869 868 866 865 864 862 861 860 859 858 857 856 854 853 851 850 848 847 845 844 843 841 840 839
866 867 868 869 870 871 872 873 873 874 874 875 876 876 877 877 878 878 878 878 878 878 878 878 878 879 878 878 878 878 878 878 878 878 878 878 878 878 878 877 874 872 875 877 876 875 876 877 878 878 878 877 876 876 875 875 874 872 871 871 870 868 867 866 864 863 862 861 859 859 857 856 855 853 852 850 849 847 846 845 844 842 841 840 839
865 866 867 868 869 870 871 872 873 873 874 874 875 875 876 876 877 877 877 878 878 878 878 878 878 878 878 878 878 878 878 878 878 878 878 878 878 879 879 878 877 874 873 874 875 875 875 876 877 877 877 876 876 875 874 874 873 871 870 870 870 868 866 865 864 863 861 860 859 858 857 855 854 853 851 850 848 847 846 845 844 843 841 840 839
865 866 867 867 868 869 870 871 872 873 873 873 874 875 875 876 876 877 877 877 877 877 877 877 877 877 878 878 878 878 878 878 878 878 878 878 878 879 879 878 879 879 876 874 874 874 875 875 875 877 877 876 876 875 874 873 872 871 870 870 870 868 866 865 863 862 861 860 859 858 856 855 853 852 851 850 848 847 846 845 844 843 842 841 839
864 865 866 866 867 868 869 870 871 872 872 873 873 874 874 875 875 876 876 876 877 877 877 877 877 877 877 877 878 878 878 878 878 878 878 879 879 879 879 878 879 880 879 879 876 873 874 875 874 875 876 875 875 874 873 873 871 870 870 870 869 867 865 864 863 862 861 860 859 857 856 854 853 852 851 850 849 848 847 846 844 844 842 841 840
862 863 865 865 866 867 868 869 870 870 871 872 872 873 873 874 874 875 875 876 876 876 876 876 876 876 876 877 877 877 878 878 878 878 878 878 878 878 878 878 879 878 878 880 878 874 874 875 873 874 875 875 874 874 873 872 871 870 869 869 868 867 864 863 862 861 860 860 858 857 856 854 853 852 851 850 849 848 847 846 845 844 842 841 840
860 862 863 864 865 866 866 867 868 869 870 871 871 872 872 873 873 874 874 875 875 875 876 876 876 876 876 876 877 877 877 877 877 877 877 878 878 878 878 878 878 878 878 878 878 876 875 875 874 874 875 874 874 873 872 872 870 869 869 868 867 866 863 862 861 861 860 859 858 857 855 854 853 852 851 850 849 848 847 845 845 844 843 841 840
858 860 861 862 863 864 865 866 867 868 868 869 870 871 871 872 872 872 873 873 874 874 875 875 875 875 875 876 876 876 876 876 876 876 877 877 877 877 877 877 877 878 878 878 877 876 875 875 874 874 874 873 873 872 872 871 870 869 868 868 866 865 864 862 861 860 860 859 858 857 855 854 853 852 851 850 849 848 846 845 844 843 842 841 840
856 858 859 860 861 863 864 864 865 866 867 868 869 869 870 870 871 871 872 872 873 873 873 874 874 874 875 875 875 875 875 875 875 875 875 875 876 876 876 876 876 876 877 877 876 875 875 874 874 873 873 872 872 871 871 870 869 868 868 867 866 865 864 863 860 859 859 858 857 856 855 854 853 852 851 850 849 848 847 845 844 843 842 841 839
854 855 856 858 859 861 862 863 864 865 865 866 867 868 868 869 869 870 870 871 871 872 872 873 873 873 873 874 874 874 874 874 874 874 874 874 874 874 874 875 875 875 875 875 875 875 874 874 873 872 872 872 871 870 870 869 869 868 867 867 866 865 864 863 861 858 858 858 857 856 855 854 853 852 851 851 849 848 847 846 844 843 842 841 839
851 853 854 856 857 858 860 861 862 863 864 864 865 866 866 867 868 868 869 869 870 870 871 871 871 871 872 872 872 872 873 873 873 873 873 872 872 873 873 873 873 873 874 874 874 874 873 872 872 871 871 870 870 869 869 868 867 867 866 865 865 864 863 862 861 858 857 858 856 856 855 854 853 852 851 851 850 849 848 846 845 843 842 841 839
849 850 851 853 855 856 857 858 859 861 862 862 863 864 865 865 866 867 867 868 868 868 869 869 869 870 870 870 870 871 871 871 871 871 871 871 871 871 872 872 872 872 872 873 873 873 872 871 871 870 870 870 869 868 868 867 866 865 865 864 863 863 862 861 860 857 856 857 856 855 855 854 853 852 851 851 850 849 848 846 845 843 842 840 839
846 847 849 850 852 853 855 856 857 858 859 860 861 862 863 863 864 865 865 866 866 866 867 867 868 868 868 868 868 869 869 869 870 870 870 870 870 870 870 870 870 870 870 871 871 871 871 870 870 869 869 868 867 867 866 865 865 864 863 863 862 861 861 860 859 857 855 855 855 854 854 853 853 852 851 851 850 849 848 846 845 843 842 840 839
843 845 846 847 849 850 852 853 855 856 857 858 859 859 861 861 862 863 863 864 864 865 865 865 866 866 866 866 867 867 867 868 868 868 868 869 869 868 869 868 869 869 868 869 869 869 869 869 868 868 867 866 866 865 864 864 863 862 862 861 860 860 859 859 859 857 855 854 853 853 852 852 852 851 850 850 849 848 847 846 845 843 842 840 838
840 842 843 845 846 847 849 850 852 853 854 855 856 857 858 859 860 861 861 862 862 863 863 863 864 864 864 864 864 865 865 865 866 866 867 867 867 867 867 867 867 867 867 867 867 867 867 866 866 866 865 864 864 863 862 862 862 861 860 859 859 858 858 858 857 857 856 855 853 852 852 851 850 850 850 849 848 847 847 846 844 843 841 840 838
837 839 840 842 843 845 846 847 849 851 852 853 854 854 856 857 858 858 859 859 860 860 861 861 862 862 862 862 862 862 863 863 864 865 865 865 865 865 865 865 865 865 865 864 864 864 864 864 864 863 862 862 861 861 861 860 860 859 858 858 857 857 857 856 856 855 855 854 853 851 851 850 849 849 848 847 847 847 846 845 844 843 841 840 838
835 836 838 839 840 842 843 844 846 847 849 850 850 851 853 854 855 856 856 857 857 858 858 859 859 860 860 860 860 860 860 861 861 862 863 863 863 863 864 864 864 863 863 863 862 862 862 862 861 861 860 860 859 858 858 858 858 857 857 856 856 855 855 854 854 854 853 853 852 851 850 850 849 848 847 846 845 845 845 844 842 841 840 839 838
832 833 835 836 837 839 840 841 843 844 845 846 847 848 849 851 852 853 854 854 855 855 856 856 856 857 857 857 857 858 858 858 859 859 860 860 861 861 861 862 862 862 861 861 860 860 860 859 858 858 857 856 856 856 856 856 855 855 855 855 854 854 853 853 852 852 851 851 851 850 850 849 849 848 848 847 846 845 845 843 841 840 839 839 837
829 830 832 833 834 836 837 838 839 840 841 842 843 844 846 847 849 851 851 852 852 852 853 853 853 854 854 855 855 855 855 855 856 856 856 857 857 858 858 858 859 859 859 858 858 857 857 856 856 855 854 854 854 854 853 853 853 853 853 853 853 852 852 851 850 850 849 849 849 849 848 847 847 847 846 846 846 845 844 842 840 839 838 837 836
826 827 828 829 831 832 834 835 836 836 837 838 839 840 842 843 845 847 849 849 849 849 849 850 850 850 851 851 852 852 852 852 853 853 853 853 854 854 855 855 855 855 855 856 855 855 855 854 853 853 852 852 852 852 852 851 851 852 852 852 852 851 850 850 849 848 848 847 847 847 846 845 844 845 844 843 844 844 842 840 839 838 837 836 835
824 824 825 826 827 829 830 831 832 833 834 835 836 837 838 839 841 843 845 846 846 846 846 846 847 847 847 848 848 849 849 849 850 850 850 850 850 850 851 851 851 851 851 851 852 852 852 852 852 851 850 850 850 850 850 850 850 851 850 850 850 849 849 848 847 847 846 846 846 845 844 843 842 842 841 840 840 840 839 838 838 836 835 835 834
821 822 822 823 825 826 827 828 829 830 830 831 832 833 834 835 837 839 840 842 842 842 843 843 843 844 844 844 844 845 845 846 846 846 846 847 847 847 847 847 846 846 846 847 847 848 849 849 849 848 848 848 848 848 848 848 849 849 848 848 848 847 847 846 845 845 844 844 844 843 841 840 840 839 839 838 837 837 836 835 836 835 834 833 833
817 818 819 820 821 822 823 824 825 826 827 828 829 829 830 831 833 835 836 837 838 838 839 839 840 840 840 840 840 840 841 841 842 842 843 843 844 844 843 843 843 842 842 842 842 843 844 844 844 845 845 846 846 846 846 846 846 846 846 846 846 845 845 844 843 842 841 841 841 841 839 838 837 837 837 836 835 835 834 833 833 833 832 832 832
813 814 815 816 817 818 819 820 821 822 822 824 825 825 826 828 830 831 832 833 833 834 834 835 836 836 836 836 836 836 836 837 837 838 839 840 840 840 840 840 839 839 838 838 838 839 839 840 840 841 842 843 843 843 842 843 843 844 844 843 843 843 843 842 840 839 838 837 837 838 837 836 835 834 834 834 834 834 834 832 831 831 831 830 830
809 809 810 811 812 813 814 815 817 817 818 819 820 821 822 824 826 827 828 829 829 830 830 831 831 832 831 831 831 831 831 832 832 833 834 836 837 837 837 837 836 835 834 834 834 834 835 836 837 838 838 839 839 839 839 839 839 840 841 840 840 840 840 839 837 836 835 834 834 835 834 833 833 832 832 832 832 832 833 832 830 829 829 829 829
804 805 806 807 808 808 808 809 811 812 812 814 815 816 817 819 821 822 824 825 825 825 825 826 827 827 826 826 827 827 827 827 828 829 830 831 832 833 833 833 833 831 830 831 831 830 830 831 832 834 834 834 835 834 834 835 835 836 837 837 837 837 837 836 835 833 832 831 831 831 832 831 831 831 830 830 829 829 830 830 828 827 828 828 827
800 801 802 803 803 803 802 803 804 805 806 807 809 811 812 814 816 817 819 820 820 820 821 821 821 821 821 821 821 821 822 822 824 825 826 827 828 828 829 830 828 827 826 827 828 827 827 828 828 829 830 830 830 830 829 830 831 831 832 833 834 834 833 832 832 831 830 828 827 828 829 829 828 828 828 828 827 825 826 827 826 826 826 826 826